Torna al catalogo

STARLINK-37344

AttivoComunicazioniSSO
NORAD 68744·PAYLOAD·🇺🇸 United States

Lanciato Apr 15, 2026 da Vandenberg Space Force Base

Loading…

Prossimi Passaggi (prossime 24 ore)

TLE

AggiornatoSource: CelesTrak SupGP

Epoca: Sep 14, 2026, 21:12 UTC

1 68744C 26082S   26257.88381944  .00057766  00000+0  17973-2 0  2570
2 68744  97.2845 120.1373 0001594  94.7874   2.3790 15.33336159    12

Traccia STARLINK-37344 in tempo reale con AllMySat

Download on the App Store